Location: Miramichi City (Newcastle)
(46.9830°N, 65.5670°W)
Time: 06:22:25
(UTC-04:00)

Iridium 12 - Visible Passes

Search period start: 05 March 2015 00:00
Search period end: 15 March 2015 01:00
Orbit: 776 x 779 km, 86.4° (Epoch: 04 March)

Date Brightness Start Highest point End Pass type
(mag) Time Alt. Az. Time Alt. Az. Time Alt. Az.
11 Mar 8.4 00:02:29 10° N 00:02:39 11° N 00:02:39 11° N visible
11 Mar 8.2 23:29:07 10° N 23:29:21 11° N 23:29:21 11° N visible
12 Mar 8.2 22:56:02 10° NNE 22:56:04 10° NNE 22:56:04 10° NNE visible
13 Mar 8.5 00:36:16 10° NNW 00:36:33 11° NNW 00:36:33 11° NNW visible
14 Mar 8.2 00:02:33 10° N 00:03:16 14° N 00:03:16 14° N visible
14 Mar 8.0 23:29:03 10° N 23:29:58 15° N 23:29:58 15° N visible
